Location: Nairn
(57.5833°N, 3.8667°W)
Time: 17:10:22
(UTC+00:00)

CZ-2D R/B - Pass Details

Date: 07 August 2020
Orbit: 552 x 639 km, 97.9° (Epoch: 22 September)

Event Time Altitude Azimuth Distance (km) Brightness Sun altitude
Rises 03:18:38 0° 18° (NNE) 2,829 8.3 -7.5°
Reaches altitude 10° 03:20:53 10° 23° (NNE) 1,910 7.4 -7.3°
Maximum altitude 03:24:55 52° 100° (E) 721 4.2 -6.9°
Drops below altitude 10° 03:28:50 10° 178° (S) 1,854 5.6 -6.6°
Enters shadow 03:30:55 - 183° (S) 2,709 6.4 -6.4°
